TimeCDT,TemperatureF,Dew PointF,Humidity,Sea Level PressureIn,VisibilityMPH,Wind Direction,Wind SpeedMPH,Gust SpeedMPH,PrecipitationIn,Events,Conditions,WindDirDegrees,DateUTC
12:15 AM,52.5,52.3,99,29.94,10.0,Calm,Calm,-,N/A,,Clear,0,2013-09-22 05:15:00
12:35 AM,51.3,51.1,99,29.94,10.0,Calm,Calm,-,N/A,,Clear,0,2013-09-22 05:35:00
12:55 AM,50.9,50.9,100,29.94,10.0,Calm,Calm,-,N/A,,Clear,0,2013-09-22 05:55:00
1:15 AM,51.3,51.3,100,29.94,10.0,Calm,Calm,-,N/A,,Clear,0,2013-09-22 06:15:00
1:35 AM,51.4,51.4,100,29.94,10.0,Calm,Calm,-,N/A,,Clear,0,2013-09-22 06:35:00
1:55 AM,51.8,51.8,100,29.94,10.0,Calm,Calm,-,N/A,,Clear,0,2013-09-22 06:55:00
2:15 AM,52.3,51.1,95,29.94,10.0,Calm,Calm,-,N/A,,Clear,0,2013-09-22 07:15:00
2:35 AM,50.5,49.5,96,29.94,10.0,Calm,Calm,-,N/A,,Clear,0,2013-09-22 07:35:00
2:55 AM,49.1,48.6,98,29.94,10.0,Calm,Calm,-,N/A,,Clear,0,2013-09-22 07:55:00
3:15 AM,49.5,49.3,99,29.94,10.0,Calm,Calm,-,N/A,,Clear,0,2013-09-22 08:15:00
3:35 AM,49.3,49.3,100,29.94,10.0,Calm,Calm,-,N/A,,Clear,0,2013-09-22 08:35:00
3:55 AM,48.2,48.2,100,29.95,10.0,Calm,Calm,-,N/A,,Clear,0,2013-09-22 08:55:00
4:15 AM,48.2,48.2,100,29.95,10.0,NNW,3.5,-,N/A,,Clear,340,2013-09-22 09:15:00
4:35 AM,50.2,49.3,97,29.95,10.0,Calm,Calm,-,N/A,,Clear,0,2013-09-22 09:35:00
4:55 AM,50.9,50.0,97,29.96,10.0,Calm,Calm,-,N/A,,Clear,0,2013-09-22 09:55:00
5:15 AM,51.4,50.0,95,29.96,10.0,Calm,Calm,-,N/A,,Clear,0,2013-09-22 10:15:00
5:35 AM,50.4,48.7,94,29.96,10.0,Calm,Calm,-,N/A,,Clear,0,2013-09-22 10:35:00
5:55 AM,47.8,46.6,95,29.97,10.0,Calm,Calm,-,N/A,,Clear,0,2013-09-22 10:55:00
6:15 AM,46.0,45.7,99,29.97,10.0,Calm,Calm,-,N/A,,Clear,0,2013-09-22 11:15:00
6:35 AM,46.2,46.0,99,29.98,10.0,Calm,Calm,-,N/A,,Clear,0,2013-09-22 11:35:00
6:55 AM,45.7,45.5,99,29.99,10.0,Calm,Calm,-,N/A,,Clear,0,2013-09-22 11:55:00
7:15 AM,46.9,46.9,100,29.99,10.0,Calm,Calm,-,N/A,,Clear,0,2013-09-22 12:15:00
7:35 AM,48.4,48.4,100,30.00,10.0,Calm,Calm,-,N/A,,Clear,0,2013-09-22 12:35:00
7:55 AM,51.3,51.3,100,30.00,10.0,Calm,Calm,-,N/A,,Clear,0,2013-09-22 12:55:00
8:15 AM,55.4,53.4,93,30.01,10.0,NNE,4.6,-,N/A,,Clear,20,2013-09-22 13:15:00
8:35 AM,57.2,53.1,86,30.01,10.0,NE,3.5,-,N/A,,Clear,40,2013-09-22 13:35:00
8:55 AM,58.6,51.8,78,30.02,10.0,ENE,5.8,-,N/A,,Clear,70,2013-09-22 13:55:00
9:15 AM,59.9,52.0,75,30.02,10.0,ENE,3.5,-,N/A,,Clear,60,2013-09-22 14:15:00
9:35 AM,61.9,52.2,70,30.02,10.0,ENE,3.5,-,N/A,,Clear,70,2013-09-22 14:35:00
9:55 AM,63.1,51.6,66,30.02,10.0,East,5.8,-,N/A,,Clear,80,2013-09-22 14:55:00
10:15 AM,65.3,51.8,62,30.02,10.0,East,3.5,-,N/A,,Clear,80,2013-09-22 15:15:00
10:35 AM,65.8,50.7,58,30.02,10.0,ENE,4.6,-,N/A,,Clear,60,2013-09-22 15:35:00
10:55 AM,67.3,49.6,53,30.02,10.0,East,5.8,-,N/A,,Clear,80,2013-09-22 15:55:00
11:15 AM,68.2,48.9,50,30.02,10.0,ENE,4.6,-,N/A,,Clear,60,2013-09-22 16:15:00
11:35 AM,69.3,48.6,48,30.02,10.0,North,3.5,-,N/A,,Clear,350,2013-09-22 16:35:00
11:55 AM,69.8,47.8,46,30.02,10.0,ENE,4.6,-,N/A,,Clear,70,2013-09-22 16:55:00
12:15 PM,71.8,49.1,45,30.02,10.0,East,4.6,-,N/A,,Clear,80,2013-09-22 17:15:00
12:35 PM,71.4,46.8,41,30.01,10.0,North,5.8,-,N/A,,Clear,350,2013-09-22 17:35:00
12:55 PM,71.4,46.4,41,30.00,10.0,North,5.8,-,N/A,,Clear,360,2013-09-22 17:55:00
1:15 PM,72.3,46.8,40,29.99,10.0,NNE,8.1,-,N/A,,Clear,20,2013-09-22 18:15:00
1:35 PM,72.7,46.8,40,29.98,10.0,NNE,9.2,-,N/A,,Clear,30,2013-09-22 18:35:00
1:55 PM,72.1,45.9,39,29.98,10.0,North,3.5,-,N/A,,Clear,360,2013-09-22 18:55:00
2:15 PM,73.4,46.0,38,29.97,10.0,NNE,8.1,-,N/A,,Clear,30,2013-09-22 19:15:00
2:35 PM,73.9,45.5,36,29.97,10.0,NNE,9.2,-,N/A,,Clear,20,2013-09-22 19:35:00
2:55 PM,73.8,45.9,37,29.96,10.0,ENE,9.2,-,N/A,,Clear,60,2013-09-22 19:55:00
3:15 PM,73.8,46.6,38,29.95,10.0,NE,4.6,-,N/A,,Clear,40,2013-09-22 20:15:00
3:35 PM,73.6,46.6,38,29.95,10.0,North,4.6,-,N/A,,Clear,350,2013-09-22 20:35:00
3:55 PM,74.5,45.5,36,29.95,10.0,East,4.6,-,N/A,,Clear,90,2013-09-22 20:55:00
4:15 PM,74.1,45.9,36,29.95,10.0,Calm,Calm,-,N/A,,Clear,0,2013-09-22 21:15:00
4:35 PM,73.6,46.0,37,29.95,10.0,Calm,Calm,-,N/A,,Clear,0,2013-09-22 21:35:00
4:55 PM,73.8,46.2,37,29.94,10.0,ENE,5.8,-,N/A,,Clear,70,2013-09-22 21:55:00
5:15 PM,73.6,45.7,37,29.94,10.0,NE,3.5,-,N/A,,Clear,50,2013-09-22 22:15:00
5:35 PM,73.2,47.1,39,29.94,10.0,NNE,5.8,-,N/A,,Clear,30,2013-09-22 22:35:00
5:55 PM,72.7,46.4,39,29.95,10.0,East,5.8,-,N/A,,Clear,80,2013-09-22 22:55:00
6:15 PM,71.2,48.2,44,29.95,10.0,ENE,4.6,-,N/A,,Clear,60,2013-09-22 23:15:00
6:35 PM,69.6,48.2,46,29.95,10.0,ENE,3.5,-,N/A,,Clear,70,2013-09-22 23:35:00
6:55 PM,67.1,49.3,53,29.95,10.0,ENE,3.5,-,N/A,,Clear,60,2013-09-22 23:55:00
7:15 PM,64.4,49.6,59,29.95,10.0,ENE,3.5,-,N/A,,Clear,60,2013-09-23 00:15:00
7:35 PM,62.6,50.7,65,29.96,10.0,NE,3.5,-,N/A,,Clear,50,2013-09-23 00:35:00
7:55 PM,62.6,50.0,63,29.96,10.0,NE,3.5,-,N/A,,Clear,50,2013-09-23 00:55:00
8:15 PM,58.3,51.1,77,29.97,10.0,NE,3.5,-,N/A,,Clear,40,2013-09-23 01:15:00
8:35 PM,56.5,50.9,82,29.98,10.0,NNE,3.5,-,N/A,,Clear,20,2013-09-23 01:35:00
8:55 PM,56.7,51.3,82,29.98,10.0,NE,3.5,-,N/A,,Clear,40,2013-09-23 01:55:00
9:15 PM,56.1,52.3,87,29.98,10.0,Calm,Calm,-,N/A,,Clear,0,2013-09-23 02:15:00
9:35 PM,55.4,51.8,88,29.98,10.0,Calm,Calm,-,N/A,,Clear,0,2013-09-23 02:35:00
9:55 PM,54.7,51.4,89,29.99,10.0,ENE,3.5,-,N/A,,Clear,60,2013-09-23 02:55:00
10:15 PM,54.3,51.6,91,29.99,10.0,NE,3.5,-,N/A,,Clear,50,2013-09-23 03:15:00
10:35 PM,54.9,50.5,85,29.99,10.0,Calm,Calm,-,N/A,,Clear,0,2013-09-23 03:35:00
10:55 PM,53.2,50.0,89,29.99,10.0,NNE,3.5,-,N/A,,Clear,20,2013-09-23 03:55:00
11:15 PM,52.7,50.2,91,29.99,10.0,Calm,Calm,-,N/A,,Clear,0,2013-09-23 04:15:00
11:35 PM,51.6,49.8,94,29.99,10.0,Calm,Calm,-,N/A,,Clear,0,2013-09-23 04:35:00
11:55 PM,51.4,49.5,93,29.99,10.0,Calm,Calm,-,N/A,,Clear,0,2013-09-23 04:55:00